Location: Eboldshausen
(51.7766°N, 10.0050°E)
Time: 06:32:25
(UTC+00:00)

Cosmos 1833 Rocket - Pass Details

Date: 15 November 2025
Orbit: 829 x 840 km, 71.0° (Epoch: 12 December)

Event Time Altitude Azimuth Distance (km) Brightness Sun altitude
Rises 17:12:57 0° 325° (NW) 3,406 6.2 -15.8°
Reaches altitude 10° 17:15:33 10° 318° (NW) 2,467 5.6 -16.2°
Maximum altitude 17:20:42 38° 252° (WSW) 1,271 4.2 -17.0°
Drops below altitude 10° 17:25:51 10° 186° (S) 2,451 5.3 -17.8°
Sets 17:28:25 0° 179° (S) 3,380 5.9 -18.2°
